KJ4AJP Weather Reports


Display with metric or nautical units.
time (UTC)temp
F
wind
direction
speed
MPH
gust
MPH
rain 1hr
in
rain 24hr
in
rain mn
in
humidity
%
barometer
mb
20260903093824 75 48 0.0 0.0 0.00 0.00 0.00 92 1015.8
20260903093319 75 48 0.0 0.0 0.00 0.00 0.00 92 1015.7
20260903092814 75 48 0.0 0.0 0.00 0.00 0.00 92 1015.7
20260903092309 75 48 0.0 0.0 0.00 0.00 0.00 93 1015.4
20260903091807 75 48 0.0 0.0 0.00 0.00 0.00 93 1015.8
20260903091301 75 48 0.0 0.0 0.00 0.00 0.00 93 1015.7
20260903090757 75 48 0.0 0.0 0.00 0.00 0.00 93 1015.7
20260903090256 75 48 0.0 0.0 0.00 0.00 0.00 92 1015.6
20260903085755 75 48 0.0 0.0 0.00 0.00 0.00 92 1015.7
20260903085250 75 48 0.0 0.0 0.00 0.00 0.00 92 1015.7
20260903084748 75 48 0.0 0.0 0.00 0.00 0.00 92 1015.6
20260903084243 75 48 0.0 0.0 0.00 0.00 0.00 91 1015.7
20260903083738 75 48 0.0 0.0 0.00 0.00 0.00 91 1015.5
20260903083233 76 48 0.0 0.0 0.00 0.00 0.00 91 1015.6
20260903082732 76 48 0.0 0.0 0.00 0.00 0.00 90 1015.5
20260903082228 76 48 0.0 0.0 0.00 0.00 0.00 90 1015.6
20260903081727 76 48 0.0 0.0 0.00 0.00 0.00 90 1015.7
20260903081223 76 48 0.0 0.0 0.00 0.00 0.00 90 1015.5
20260903080719 76 48 0.0 0.0 0.00 0.00 0.00 90 1015.3
20260903080217 76 48 0.0 0.0 0.00 0.00 0.00 90 1015.4
20260903075716 76 48 0.0 0.0 0.00 0.00 0.00 90 1015.3
20260903075211 76 48 0.0 0.0 0.00 0.00 0.00 89 1015.3
20260903074710 76 48 0.0 0.0 0.00 0.00 0.00 90 1015.1
20260903074206 76 48 0.0 0.0 0.00 0.00 0.00 89 1015.3
20260903073701 76 48 0.0 0.0 0.00 0.00 0.00 89 1015.4
20260903073156 76 48 0.0 0.0 0.00 0.00 0.00 89 1015.4
20260903072652 77 48 0.0 0.0 0.00 0.00 0.00 89 1015.2
20260903072148 77 48 0.0 0.0 0.00 0.00 0.00 89 1015.5
20260903071644 77 48 0.0 0.0 0.00 0.00 0.00 88 1015.4
20260903071140 77 48 0.0 0.0 0.00 0.00 0.00 88 1015.4
20260903070639 77 48 0.0 0.0 0.00 0.00 0.00 88 1015.5
20260903070135 77 48 0.0 0.0 0.00 0.00 0.00 87 1015.5
20260903065635 77 48 0.0 0.0 0.00 0.00 0.00 87 1015.5
20260903065130 77 48 0.0 0.0 0.00 0.00 0.00 87 1015.8
20260903064629 77 48 0.0 0.0 0.00 0.00 0.00 87 1015.6
20260903064125 77 48 0.0 0.0 0.00 0.00 0.00 87 1015.5
20260903063620 77 48 0.0 0.0 0.00 0.00 0.00 87 1015.5
20260903063115 78 48 0.0 0.0 0.00 0.00 0.00 86 1015.5
20260903062611 77 48 0.0 0.0 0.00 0.00 0.00 86 1015.6
20260903062106 78 48 0.0 0.0 0.00 0.00 0.00 86 1015.6
20260903061601 78 48 0.0 0.0 0.00 0.00 0.00 86 1015.5
20260903061101 78 48 0.0 0.0 0.00 0.00 0.00 86 1015.6
20260903060600 78 47 0.0 0.0 0.00 0.00 0.00 85 1015.5
20260903060055 78 47 0.0 0.0 0.00 0.00 0.00 85 1015.5
20260903055553 78 47 0.0 0.0 0.00 0.00 0.00 84 1015.5
20260903055052 79 45 0.0 1.0 0.00 0.00 0.00 83 1015.7
20260903054547 79 51 0.0 0.0 0.00 0.00 0.00 82 1015.6
20260903054043 79 50 0.0 0.0 0.00 0.00 0.00 82 1015.6
20260903053538 80 51 0.0 0.0 0.00 0.00 0.00 81 1015.7
20260903053034 80 51 0.0 0.0 0.00 0.00 0.00 81 1015.6
20260903052530 80 51 0.0 0.0 0.00 0.00 0.00 81 1015.6
20260903052026 80 53 0.0 0.0 0.00 0.00 0.00 81 1015.7
20260903051520 80 54 0.0 0.0 0.00 0.00 0.00 80 1015.6
20260903051016 80 54 0.0 0.0 0.00 0.00 0.00 80 1015.7
20260903050515 80 55 0.0 0.0 0.00 0.00 0.00 80 1015.7
20260903050010 80 54 0.0 0.0 0.00 0.00 0.00 80 1015.7
20260903045510 80 57 0.0 0.0 0.00 0.00 0.00 79 1015.7
20260903045007 80 56 0.0 0.0 0.00 0.00 0.00 79 1015.5
20260903044502 81 56 0.0 0.0 0.00 0.00 0.00 79 1015.5
20260903043958 81 56 0.0 0.0 0.00 0.00 0.00 78 1015.7
20260903043453 81 57 0.0 0.0 0.00 0.00 0.00 78 1015.7
20260903042951 81 57 0.0 0.0 0.00 0.00 0.00 78 1015.3
20260903042447 81 60 0.0 0.0 0.00 0.00 0.00 77 1015.5
20260903041943 81 52 0.0 0.0 0.00 0.00 0.00 77 1015.5
20260903041439 81 57 0.0 0.0 0.00 0.00 0.00 78 1015.4
20260903040935 81 64 0.0 0.0 0.00 0.00 0.00 77 1015.5
20260903040433 81 65 0.0 0.0 0.00 0.00 0.00 77 1015.6
20260903035930 81 64 0.0 0.0 0.00 0.00 0.00 77 1015.6
20260903035426 81 61 0.0 0.0 0.00 0.00 0.00 77 1015.6
20260903034925 81 60 0.0 0.0 0.00 0.00 0.00 77 1015.5
20260903034421 82 60 0.0 0.0 0.00 0.00 0.00 77 1015.6
20260903033916 82 62 0.0 0.0 0.00 0.00 0.00 76 1015.6
20260903033411 82 52 0.0 0.0 0.00 0.00 0.00 76 1015.7
20260903032906 82 61 0.0 0.0 0.00 0.00 0.00 77 1015.6
20260903032402 82 61 0.0 0.0 0.00 0.00 0.00 77 1015.6
20260903031902 82 63 0.0 0.0 0.00 0.00 0.00 76 1015.6
20260903031401 82 63 0.0 0.0 0.00 0.00 0.00 76 1015.7
20260903030856 82 63 0.0 0.0 0.00 0.00 0.00 76 1015.4
20260903030353 82 62 0.0 0.0 0.00 0.00 0.00 75 1015.6
20260903025848 83 63 0.0 0.0 0.00 0.00 0.00 74 1015.7
20260903025343 83 63 0.0 0.0 0.00 0.00 0.00 74 1015.6
20260903024838 82 56 0.0 0.0 0.00 0.00 0.00 74 1015.6
20260903024338 82 58 0.0 0.0 0.00 0.00 0.00 75 1015.5
20260903023833 83 64 0.0 0.0 0.00 0.00 0.00 74 1015.5
20260903023329 83 64 0.0 0.0 0.00 0.00 0.00 73 1015.4
20260903022818 83 64 0.0 0.0 0.00 0.00 0.00 73 1015.6
20260903022317 84 64 0.0 0.0 0.00 0.00 0.00 72 1015.6
20260903021810 84 64 0.0 0.0 0.00 0.00 0.00 72 1015.5
20260903021306 84 65 0.0 0.0 0.00 0.00 0.00 71 1015.5
20260903020806 84 70 0.0 0.0 0.00 0.00 0.00 71 1015.5
20260903020300 85 72 0.0 0.0 0.00 0.00 0.00 70 1015.3
20260903015756 85 66 0.0 0.0 0.00 0.00 0.00 70 1015.4
20260903015251 85 60 0.0 0.0 0.00 0.00 0.00 70 1015.3
20260903014747 85 74 1.0 1.0 0.00 0.00 0.00 69 1015.3
20260903014241 85 61 0.0 0.0 0.00 0.00 0.00 70 1015.2
20260903013736 85 60 0.0 0.0 0.00 0.00 0.00 70 1015.1
20260903013234 85 70 0.0 0.0 0.00 0.00 0.00 70 1015.0
20260903012733 85 65 0.0 0.0 0.00 0.00 0.00 69 1015.2
20260903012228 85 66 0.0 1.0 0.00 0.00 0.00 69 1015.2
20260903011728 85 61 0.0 0.0 0.00 0.00 0.00 69 1014.8
20260903011221 85 61 0.0 0.0 0.00 0.00 0.00 69 1014.9
20260903010717 85 59 0.0 0.0 0.00 0.00 0.00 68 1014.8
20260903010217 85 65 0.0 0.0 0.00 0.00 0.00 68 1014.8
20260903005716 85 65 0.0 0.0 0.00 0.00 0.00 68 1014.7
20260903005211 86 64 0.0 0.0 0.00 0.00 0.00 68 1014.8
20260903004707 86 58 0.0 0.0 0.00 0.00 0.00 67 1014.9
20260903004201 86 58 0.0 0.0 0.00 0.00 0.00 66 1014.7
20260903003657 86 58 0.0 0.0 0.00 0.00 0.00 67 1014.9
20260903003152 86 58 0.0 0.0 0.00 0.00 0.00 65 1014.8
20260903002642 87 58 0.0 0.0 0.00 0.00 0.00 65 1014.8
20260903002137 87 58 0.0 0.0 0.00 0.00 0.00 64 1014.8
20260903001631 87 58 0.0 0.0 0.00 0.00 0.00 63 1014.8
20260903001130 88 58 0.0 0.0 0.00 0.00 0.00 62 1015.0
20260903000626 89 58 0.0 0.0 0.00 0.00 0.00 60 1015.1
20260903000120 89 58 0.0 0.0 0.00 0.00 0.00 59 1015.0
20260902235619 90 57 0.0 0.0 0.00 0.00 0.00 58 1015.1
20260902235114 91 65 0.0 0.0 0.00 0.00 0.00 56 1014.9
20260902234608 91 73 0.0 1.0 0.00 0.00 0.00 55 1015.1
20260902234107 92 65 0.0 0.0 0.00 0.00 0.00 53 1015.0
20260902233603 92 76 1.0 2.0 0.00 0.00 0.00 52 1015.0
20260902233102 93 58 1.0 1.0 0.00 0.00 0.00 51 1015.0
20260902232556 94 64 0.0 0.0 0.00 0.00 0.00 53 1014.9
20260902232050 94 61 0.0 0.0 0.00 0.00 0.00 52 1015.0
20260902231544 95 54 1.0 2.0 0.00 0.00 0.00 49 1014.9
20260902231039 95 86 1.0 1.0 0.00 0.00 0.00 49 1015.1
20260902230538 95 60 0.0 0.0 0.00 0.00 0.00 49 1015.0
20260902230038 96 62 0.0 0.0 0.00 0.00 0.00 46 1015.3
20260902225533 97 0 2.0 2.0 0.00 0.00 0.00 48 1015.2
20260902225032 97 28 1.0 2.0 0.00 0.00 0.00 46 1014.9
20260902224531 97 40 1.0 1.0 0.00 0.00 0.00 45 1014.8
20260902224028 98 292 6.0 6.0 0.00 0.00 0.00 44 1015.0
20260902223524 98 69 0.0 0.0 0.00 0.00 0.00 45 1015.0
20260902223022 98 25 1.0 1.0 0.00 0.00 0.00 45 1015.0
20260902222521 98 65 0.0 1.0 0.00 0.00 0.00 47 1015.0
20260902222020 97 58 0.0 0.0 0.00 0.00 0.00 47 1014.8
20260902221515 96 54 0.0 0.0 0.00 0.00 0.00 48 1015.0
20260902221011 96 78 1.0 1.0 0.00 0.00 0.00 47 1015.1
20260902220511 97 57 0.0 0.0 0.00 0.00 0.00 47 1014.9
20260902220005 98 101 1.0 1.0 0.00 0.00 0.00 45 1015.1
20260902215501 98 61 0.0 0.0 0.00 0.00 0.00 46 1015.1
20260902214957 98 56 0.0 0.0 0.00 0.00 0.00 44 1014.9
20260902214456 97 84 2.0 2.0 0.00 0.00 0.00 45 1015.0
20260902213955 98 75 1.0 1.0 0.00 0.00 0.00 45 1015.2
20260902213452 98 29 1.0 1.0 0.00 0.00 0.00 44 1015.2
20260902212950 98 44 4.0 6.0 0.00 0.00 0.00 43 1015.4
20260902212447 97 56 0.0 0.0 0.00 0.00 0.00 49 1015.3
20260902211942 98 56 0.0 0.0 0.00 0.00 0.00 45 1015.2
20260902211438 99 48 1.0 1.0 0.00 0.00 0.00 43 1015.3
20260902210933 99 61 0.0 1.0 0.00 0.00 0.00 48 1015.4
20260902210428 99 40 1.0 1.0 0.00 0.00 0.00 41 1015.6
20260902205926 99 49 0.0 1.0 0.00 0.00 0.00 44 1015.4
20260902205416 99 73 2.0 3.0 0.00 0.00 0.00 44 1015.4
20260902204912 97 57 0.0 0.0 0.00 0.00 0.00 48 1015.5
20260902204411 98 195 0.0 1.0 0.00 0.00 0.00 45 1015.4
20260902203907 98 46 0.0 0.0 0.00 0.00 0.00 43 1015.5
20260902203402 99 59 1.0 2.0 0.00 0.00 0.00 44 1015.6
20260902202856 98 62 0.0 1.0 0.00 0.00 0.00 48 1015.7
20260902202352 96 56 0.0 0.0 0.00 0.00 0.00 48 1015.9
20260902201849 97 47 0.0 1.0 0.00 0.00 0.00 45 1015.8
20260902201348 99 63 2.0 3.0 0.00 0.00 0.00 43 1015.8
20260902200843 100 89 1.0 2.0 0.00 0.00 0.00 42 1015.9
20260902200339 99 57 0.0 0.0 0.00 0.00 0.00 44 1015.8
20260902195833 98 278 1.0 2.0 0.00 0.00 0.00 45 1016.0
20260902195333 98 211 1.0 2.0 0.00 0.00 0.00 43 1016.1
20260902194827 98 47 0.0 0.0 0.00 0.00 0.00 44 1016.1
20260902194322 99 128 2.0 2.0 0.00 0.00 0.00 44 1016.4
20260902193818 99 59 1.0 1.0 0.00 0.00 0.00 43 1016.5
20260902193314 99 64 1.0 1.0 0.00 0.00 0.00 44 1016.4
20260902192813 98 62 1.0 1.0 0.00 0.00 0.00 45 1016.5
20260902192311 97 56 0.0 0.0 0.00 0.00 0.00 49 1016.6
20260902191811 97 62 0.0 0.0 0.00 0.00 0.00 49 1016.6
20260902191306 98 58 2.0 2.0 0.00 0.00 0.00 46 1016.7
20260902190806 99 60 1.0 1.0 0.00 0.00 0.00 44 1016.7
20260902190305 100 131 3.0 3.0 0.00 0.00 0.00 43 1017.0
20260902185802 99 31 0.0 1.0 0.00 0.00 0.00 47 1017.0
20260902185258 98 82 1.0 2.0 0.00 0.00 0.00 45 1017.0
20260902184754 97 61 0.0 0.0 0.00 0.00 0.00 45 1017.0
20260902184249 97 39 0.0 0.0 0.00 0.00 0.00 45 1017.1
20260902183744 97 73 1.0 1.0 0.00 0.00 0.00 46 1017.0
20260902183240 96 67 0.0 0.0 0.00 0.00 0.00 45 1017.1
20260902182736 96 102 2.0 4.0 0.00 0.00 0.00 44 1017.1
20260902182232 97 57 0.0 0.0 0.00 0.00 0.00 46 1017.1
20260902181729 97 61 1.0 1.0 0.00 0.00 0.00 47 1017.0
20260902181228 96 96 1.0 1.0 0.00 0.00 0.00 45 1017.2
20260902180723 97 318 2.0 2.0 0.00 0.00 0.00 44 1017.4
20260902180219 99 25 1.0 1.0 0.00 0.00 0.00 42 1017.4
20260902175719 99 43 0.0 1.0 0.00 0.00 0.00 49 1017.3
20260902175215 98 43 1.0 1.0 0.00 0.00 0.00 45 1017.4
20260902174710 97 83 2.0 2.0 0.00 0.00 0.00 47 1017.7
20260902174206 97 93 2.0 2.0 0.00 0.00 0.00 43 1017.7
20260902173702 97 55 0.0 0.0 0.00 0.00 0.00 45 1017.6
20260902173156 99 68 0.0 1.0 0.00 0.00 0.00 42 1017.6
20260902172656 99 78 0.0 0.0 0.00 0.00 0.00 47 1017.6
20260902172155 99 39 2.0 2.0 0.00 0.00 0.00 46 1017.7
20260902171651 98 52 0.0 0.0 0.00 0.00 0.00 47 1017.9
20260902171147 97 35 1.0 1.0 0.00 0.00 0.00 47 1018.0
20260902170643 96 38 0.0 1.0 0.00 0.00 0.00 47 1017.9
20260902170138 98 22 2.0 2.0 0.00 0.00 0.00 44 1018.1
20260902165633 98 78 0.0 1.0 0.00 0.00 0.00 51 1018.3
20260902165132 96 42 1.0 2.0 0.00 0.00 0.00 50 1018.3
20260902164627 96 62 0.0 0.0 0.00 0.00 0.00 50 1018.2
20260902164126 96 115 1.0 1.0 0.00 0.00 0.00 47 1018.2
20260902163622 97 21 1.0 2.0 0.00 0.00 0.00 50 1018.2
20260902163120 97 63 0.0 0.0 0.00 0.00 0.00 49 1018.3
20260902162620 96 56 0.0 0.0 0.00 0.00 0.00 52 1018.3
20260902162115 96 69 0.0 1.0 0.00 0.00 0.00 52 1018.4
20260902161609 96 14 2.0 2.0 0.00 0.00 0.00 52 1018.6
20260902161106 95 19 1.0 2.0 0.00 0.00 0.00 50 1018.5
20260902160602 96 19 1.0 1.0 0.00 0.00 0.00 49 1018.6
20260902160057 95 31 0.0 1.0 0.00 0.00 0.00 52 1018.5
20260902155555 94 17 1.0 2.0 0.00 0.00 0.00 52 1018.5
20260902155054 94 95 1.0 1.0 0.00 0.00 0.00 52 1018.9
20260902154550 94 78 1.0 2.0 0.00 0.00 0.00 53 1018.6
20260902154050 94 48 0.0 0.0 0.00 0.00 0.00 53 1018.9
20260902153548 93 96 1.0 1.0 0.00 0.00 0.00 54 1018.8
20260902153044 93 109 1.0 1.0 0.00 0.00 0.00 55 1018.7
20260902152541 93 1 2.0 3.0 0.00 0.00 0.00 55 1018.8
20260902152036 92 229 1.0 2.0 0.00 0.00 0.00 55 1018.8
20260902151532 93 45 1.0 2.0 0.00 0.00 0.00 54 1018.7
20260902151030 94 181 2.0 2.0 0.00 0.00 0.00 53 1018.7
20260902150526 95 19 1.0 1.0 0.00 0.00 0.00 52 1018.6
20260902150021 93 63 0.0 0.0 0.00 0.00 0.00 55 1018.8
20260902145516 92 64 0.0 0.0 0.00 0.00 0.00 57 1018.9
20260902145010 91 14 1.0 2.0 0.00 0.00 0.00 56 1018.6
20260902144507 91 7 1.0 2.0 0.00 0.00 0.00 59 1018.6
20260902144002 90 321 2.0 2.0 0.00 0.00 0.00 58 1018.9
20260902143457 89 41 2.0 2.0 0.00 0.00 0.00 60 1018.7
20260902142952 91 323 2.0 3.0 0.00 0.00 0.00 58 1018.8
20260902142448 89 67 0.0 0.0 0.00 0.00 0.00 61 1018.7
20260902141943 89 88 0.0 1.0 0.00 0.00 0.00 62 1018.7
20260902141438 88 67 0.0 1.0 0.00 0.00 0.00 64 1018.8
20260902140937 87 67 0.0 1.0 0.00 0.00 0.00 63 1018.6
20260902140433 87 89 2.0 3.0 0.00 0.00 0.00 64 1018.8
20260902135932 87 31 2.0 2.0 0.00 0.00 0.00 64 1018.7
20260902135429 86 47 0.0 1.0 0.00 0.00 0.00 65 1018.8
20260902134927 87 48 0.0 1.0 0.00 0.00 0.00 67 1018.7
20260902134424 85 70 0.0 0.0 0.00 0.00 0.00 69 1018.7
20260902133919 85 349 0.0 1.0 0.00 0.00 0.00 67 1018.7
20260902133418 84 87 0.0 1.0 0.00 0.00 0.00 72 1018.9
20260902132913 83 80 1.0 1.0 0.00 0.00 0.00 72 1018.8
20260902132408 82 119 1.0 1.0 0.00 0.00 0.00 74 1018.8
20260902131903 82 58 0.0 0.0 0.00 0.00 0.00 76 1018.7
20260902131400 82 62 0.0 0.0 0.00 0.00 0.00 77 1018.8
20260902130859 83 54 0.0 0.0 0.00 0.00 0.00 74 1018.9
20260902130356 83 67 0.0 0.0 0.00 0.00 0.00 74 1018.7
20260902125850 82 66 0.0 0.0 0.00 0.00 0.00 77 1018.5
20260902125346 80 53 0.0 0.0 0.00 0.00 0.00 79 1018.6
20260902124842 79 60 0.0 0.0 0.00 0.00 0.00 82 1018.6
20260902124338 78 59 0.0 0.0 0.00 0.00 0.00 85 1018.5
20260902123833 77 60 0.0 0.0 0.00 0.00 0.00 86 1018.6
20260902123329 76 43 0.0 0.0 0.00 0.00 0.00 89 1018.5
20260902122827 75 57 0.0 0.0 0.00 0.00 0.00 93 1018.4
20260902122324 74 58 0.0 0.0 0.00 0.00 0.00 94 1018.5
20260902121823 73 58 0.0 0.0 0.00 0.00 0.00 95 1018.5
20260902121319 73 58 0.0 0.0 0.00 0.00 0.00 95 1018.2
20260902120814 73 58 0.0 0.0 0.00 0.00 0.00 95 1018.3
20260902120311 73 58 0.0 0.0 0.00 0.00 0.00 96 1018.1
20260902115810 72 58 0.0 0.0 0.00 0.00 0.00 96 1018.2
20260902115309 72 58 0.0 0.0 0.00 0.00 0.00 96 1018.1
20260902114803 72 58 0.0 0.0 0.00 0.00 0.00 96 1018.0
20260902114300 72 58 0.0 0.0 0.00 0.00 0.00 96 1018.0
20260902113754 72 58 0.0 0.0 0.00 0.00 0.00 96 1018.1
20260902113249 72 58 0.0 0.0 0.00 0.00 0.00 96 1018.1
20260902112748 72 58 0.0 0.0 0.00 0.00 0.00 96 1018.0
20260902112246 72 58 0.0 0.0 0.00 0.00 0.00 96 1018.0
20260902111746 72 58 0.0 0.0 0.00 0.00 0.00 96 1017.7
20260902111242 72 58 0.0 0.0 0.00 0.00 0.00 96 1017.8
20260902110738 72 58 0.0 0.0 0.00 0.00 0.00 96 1017.9
20260902110234 72 58 0.0 0.0 0.00 0.00 0.00 96 1017.8
20260902105733 72 58 0.0 0.0 0.00 0.00 0.00 96 1017.9
20260902105229 72 58 0.0 0.0 0.00 0.00 0.00 96 1017.7
20260902104724 72 58 0.0 0.0 0.00 0.00 0.00 96 1017.6
20260902104220 72 58 0.0 0.0 0.00 0.00 0.00 96 1017.6
20260902103719 72 58 0.0 0.0 0.00 0.00 0.00 96 1017.5
20260902103214 72 58 0.0 0.0 0.00 0.00 0.00 96 1017.4
20260902102709 72 58 0.0 0.0 0.00 0.00 0.00 95 1017.5
20260902102207 72 58 0.0 0.0 0.00 0.00 0.00 95 1017.4
20260902101707 72 58 0.0 0.0 0.00 0.00 0.00 95 1017.4
20260902101202 73 58 0.0 0.0 0.00 0.00 0.00 95 1017.3
20260902100701 73 58 0.0 0.0 0.00 0.00 0.00 95 1017.3
20260902100156 73 58 0.0 0.0 0.00 0.00 0.00 94 1017.4
20260902095655 73 58 0.0 0.0 0.00 0.00 0.00 94 1017.2
20260902095149 73 58 0.0 0.0 0.00 0.00 0.00 94 1017.2
20260902094645 73 58 0.0 0.0 0.00 0.00 0.00 93 1017.1
20260902094141 73 58 0.0 0.0 0.00 0.00 0.00 93 1017.2